Rochelle, IL

10:45 AM CST on January 20, 2017 (GMT -0600)
Rochelle

Weather History for KRPJ - February, 2013

Change the Weather History Date:

Sunday, February 24, 2013

  Actual Average (KRFD) Record (KRFD)
Temperature  
Mean Temperature 18 °F -  
Max Temperature 32 °F 35 °F 64 °F (1930)
Min Temperature 5 °F 20 °F -11 °F (1993)
Degree Days  
Heating Degree Days 46    
Moisture  
Dew Point 16 °F    
Average Humidity 86    
Maximum Humidity 96    
Minimum Humidity 66    
Precipitation  
Precipitation 0.01 in - - ()
Sea Level Pressure  
Sea Level Pressure 30.08 in    
Wind  
Wind Speed 2 mph (SSE)    
Max Wind Speed 6 mph    
Max Gust Speed -    
Visibility 8 miles    
Events      
Averages and records for this station are not official NWS values.
T = Trace of Precipitation, MM = Missing Value Source: NWS Daily Summary

Daily Weather History Graph

Daily Weather History Graph

Search for Another Location

Airport or City:

Trip Planner

Search our weather history database for the weather conditions in past years. The results will help you decide how hot, cold, wet, or windy it might be!

Date:

Astronomy

Feb. 24, 2013 Rise Set
Actual Time 6:38 AM CST 5:40 PM CST
Civil Twilight 6:10 AM CST 6:09 PM CST
Nautical Twilight 5:38 AM CST 6:41 PM CST
Astronomical Twilight 5:05 AM CST 7:13 PM CST
Moon 4:51 PM CST (2/24) 5:36 AM CST (2/24)
Length of Visible Light 11h 58m
Length of Day
11h 02m
Waxing Gibbous, 99% of the Moon is Illuminated
Feb 24
Waxing Gibbous
Feb 25
Full
Mar 4
Last Quarter
Mar 11
New
Mar 19
First Quarter

Hourly Weather History & Observations

Time (CST) Temp. Windchill Dew Point Humidity Pressure Visibility Wind Dir Wind Speed Gust Speed Precip Events Conditions
12:55 AM 13.5 °F - 12.2 °F 95% 29.99 in 7.0 mi Calm Calm - N/A   Clear
1:15 AM 12.0 °F 4.1 °F 10.4 °F 93% 29.99 in 7.0 mi WNW 4.6 mph - N/A   Clear
1:35 AM 12.7 °F 6.7 °F 11.3 °F 94% 29.99 in 7.0 mi West 3.5 mph - N/A   Clear
1:55 AM 9.5 °F 3.0 °F 8.1 °F 94% 29.99 in 5.0 mi WSW 3.5 mph - N/A   Clear
2:15 AM 12.0 °F 4.1 °F 10.8 °F 95% 29.99 in 7.0 mi WSW 4.6 mph - N/A   Clear
2:35 AM 10.8 °F 1.2 °F 9.0 °F 92% 29.99 in 5.0 mi West 5.8 mph - N/A   Clear
2:55 AM 10.9 °F 4.7 °F 9.3 °F 93% 29.99 in 7.0 mi WSW 3.5 mph - N/A   Clear
3:15 AM 10.2 °F - 8.6 °F 93% 29.99 in 5.0 mi Calm Calm - N/A   Clear
3:35 AM 6.8 °F - 4.6 °F 91% 30.00 in 7.0 mi Calm Calm - N/A   Clear
3:55 AM 8.4 °F - 6.8 °F 93% 30.01 in 5.0 mi Calm Calm - N/A   Clear
4:15 AM 6.4 °F - 4.5 °F 92% 30.01 in 7.0 mi Calm Calm - N/A   Clear
4:35 AM 7.0 °F - 4.6 °F 90% 30.01 in 5.0 mi Calm Calm - N/A   Clear
4:55 AM 7.5 °F 0.8 °F 5.7 °F 92% 30.02 in 5.0 mi SE 3.5 mph - N/A   Clear
5:15 AM 7.5 °F 0.8 °F 5.7 °F 92% 30.03 in 4.0 mi South 3.5 mph - N/A   Clear
5:35 AM 6.8 °F -3.5 °F 5.0 °F 92% 30.04 in 5.0 mi SSW 5.8 mph - N/A   Clear
5:55 AM 5.9 °F -3.0 °F 3.9 °F 92% 30.05 in 7.0 mi SW 4.6 mph - N/A   Clear
6:15 AM 6.4 °F -0.5 °F 4.3 °F 91% 30.06 in 7.0 mi South 3.5 mph - N/A   Clear
6:35 AM 6.4 °F -2.4 °F 4.5 °F 92% 30.06 in 5.0 mi SSW 4.6 mph - N/A   Clear
6:55 AM 7.7 °F 1.0 °F 6.1 °F 93% 30.06 in 3.0 mi South 3.5 mph - N/A   Clear
7:15 AM 7.9 °F - 6.1 °F 92% 30.06 in 3.0 mi Calm Calm - N/A   Clear
7:35 AM 7.7 °F - 5.5 °F 91% 30.07 in 4.0 mi Calm Calm - N/A   Clear
7:55 AM 10.0 °F - 8.4 °F 93% 30.08 in 4.0 mi Calm Calm - N/A   Clear
8:15 AM 11.7 °F 5.5 °F 10.0 °F 93% 30.09 in 4.0 mi South 3.5 mph - N/A   Clear
8:35 AM 13.8 °F - 12.6 °F 95% 30.09 in 4.0 mi Calm Calm - N/A   Clear
8:55 AM 15.4 °F - 14.0 °F 94% 30.10 in 4.0 mi Calm Calm - N/A   Clear
9:15 AM 16.7 °F - 15.4 °F 95% 30.11 in 4.0 mi Calm Calm - N/A   Clear
9:35 AM 18.0 °F - 16.7 °F 95% 30.11 in 5.0 mi Calm Calm - N/A   Clear
9:55 AM 19.8 °F 14.7 °F 18.7 °F 96% 30.11 in 5.0 mi SSW 3.5 mph - N/A   Clear
10:15 AM 21.4 °F - 18.5 °F 89% 30.11 in 7.0 mi Calm Calm - N/A   Clear
10:35 AM 23.7 °F - 17.8 °F 78% 30.11 in 10.0 mi Calm Calm - N/A   Clear
10:55 AM 25.3 °F - 19.4 °F 78% 30.11 in 10.0 mi Calm Calm - N/A   Clear
11:15 AM 25.7 °F - 20.3 °F 80% 30.11 in 7.0 mi Calm Calm - N/A   Clear
11:35 AM 26.6 °F 22.6 °F 20.8 °F 79% 30.12 in 10.0 mi South 3.5 mph - N/A   Clear
11:55 AM 27.3 °F 22.0 °F 21.6 °F 79% 30.12 in 10.0 mi SSE 4.6 mph - N/A   Clear
12:15 PM 28.2 °F - 20.8 °F 74% 30.11 in 10.0 mi Calm Calm - N/A   Clear
12:35 PM 28.9 °F - 21.6 °F 74% 30.11 in 10.0 mi Calm Calm - N/A   Clear
12:55 PM 29.5 °F 25.9 °F 21.4 °F 72% 30.11 in 10.0 mi SSE 3.5 mph - N/A   Clear
1:15 PM 30.2 °F - 21.7 °F 71% 30.10 in 10.0 mi Calm Calm - N/A   Clear
1:35 PM 30.2 °F 26.7 °F 22.1 °F 72% 30.11 in 10.0 mi South 3.5 mph - N/A   Clear
1:55 PM 30.7 °F - 21.7 °F 69% 30.10 in 10.0 mi Calm Calm - N/A   Clear
2:15 PM 31.1 °F - 21.7 °F 68% 30.09 in 10.0 mi Calm Calm - N/A   Clear
2:35 PM 32.0 °F - 21.9 °F 66% 30.09 in 10.0 mi Calm Calm - N/A   Clear
2:55 PM 32.0 °F - 22.6 °F 68% 30.10 in 10.0 mi Calm Calm - N/A   Clear
3:15 PM 32.0 °F 28.7 °F 23.0 °F 69% 30.10 in 10.0 mi South 3.5 mph - N/A   Clear
3:35 PM 32.0 °F 28.7 °F 23.7 °F 71% 30.10 in 10.0 mi South 3.5 mph - N/A   Clear
3:55 PM 32.0 °F 28.7 °F 23.5 °F 71% 30.10 in 10.0 mi South 3.5 mph - N/A   Clear
4:15 PM 32.0 °F 28.7 °F 23.9 °F 72% 30.10 in 10.0 mi South 3.5 mph - N/A   Clear
4:35 PM 31.6 °F 27.0 °F 23.9 °F 73% 30.10 in 10.0 mi SSE 4.6 mph - N/A   Clear
4:55 PM 30.6 °F 27.1 °F 24.1 °F 77% 30.09 in 10.0 mi SE 3.5 mph - N/A   Clear
5:15 PM 29.8 °F 24.9 °F 23.9 °F 79% 30.09 in 10.0 mi SE 4.6 mph - N/A   Clear
5:55 PM 27.9 °F 24.0 °F 24.8 °F 88% 30.10 in 10.0 mi SE 3.5 mph - N/A   Clear
6:15 PM 26.8 °F 21.4 °F 24.1 °F 90% 30.11 in 10.0 mi ESE 4.6 mph - N/A   Clear
6:35 PM 26.2 °F 20.7 °F 23.9 °F 91% 30.11 in 10.0 mi ESE 4.6 mph - N/A   Clear
6:55 PM 26.4 °F 20.9 °F 23.5 °F 89% 30.12 in 10.0 mi ESE 4.6 mph - N/A   Clear
7:15 PM 25.5 °F 18.7 °F 23.0 °F 90% 30.11 in 10.0 mi ESE 5.8 mph - N/A   Clear
7:35 PM 25.3 °F 19.7 °F 23.0 °F 91% 30.11 in 10.0 mi ESE 4.6 mph - N/A   Clear
7:55 PM 25.7 °F 20.1 °F 22.6 °F 88% 30.12 in 10.0 mi ESE 4.6 mph - N/A   Clear
8:15 PM 25.5 °F 19.9 °F 22.3 °F 88% 30.12 in 10.0 mi ESE 4.6 mph - N/A   Clear
8:35 PM 23.4 °F 16.2 °F 21.0 °F 91% 30.12 in 10.0 mi ESE 5.8 mph - N/A   Clear
8:55 PM 25.2 °F 19.5 °F 22.6 °F 90% 30.12 in 10.0 mi East 4.6 mph - N/A   Clear
9:15 PM 22.3 °F 17.6 °F 20.1 °F 91% 30.12 in 10.0 mi East 3.5 mph - N/A   Clear
9:35 PM 23.7 °F 19.3 °F 21.0 °F 89% 30.12 in 10.0 mi East 3.5 mph - N/A   Clear
9:55 PM 22.6 °F 18.0 °F 19.6 °F 88% 30.12 in 10.0 mi East 3.5 mph - N/A   Clear
10:15 PM 22.1 °F 15.9 °F 20.3 °F 93% 30.12 in 10.0 mi ESE 4.6 mph - N/A   Clear
10:35 PM 21.9 °F 17.2 °F 19.6 °F 91% 30.12 in 10.0 mi ESE 3.5 mph - N/A   Clear
10:55 PM 21.2 °F - 18.9 °F 91% 30.12 in 10.0 mi Calm Calm - N/A   Clear
11:15 PM 22.6 °F 18.0 °F 20.1 °F 90% 30.13 in 10.0 mi East 3.5 mph - N/A   Clear
11:35 PM 21.9 °F - 19.8 °F 91% 30.13 in 10.0 mi Calm Calm - N/A   Clear
11:55 PM 22.6 °F - 20.3 °F 91% 30.13 in 10.0 mi Calm Calm - N/A   Clear